QPF
0.01 0.01 0.02 0.01 0.01 0.01 0.01 0.01 0.00 0.00 0.00 0.01 0.00 0.00 0.00 0.00 0.00 0.01 0.00 0.00 0.00 0.01 0.02 0.02 0.03 0.03 0.03 0.03 0.02 0.03 0.04 0.03 0.04 0.07 0.06 0.05 0.06 0.06 0.07 0.05 0.02 0.01 0.04
0.00 0.01 0.02 0.01 0.00 0.00 0.00 0.00 0.00 0.00 0.00 0.00 0.01 0.00 0.00 0.00 0.00 0.00 0.01 0.01 0.01 0.01 0.01 0.02 0.02 0.02 0.02 0.01 0.02 0.02 0.03 0.05 0.09 0.11 0.08 0.07 0.07 0.07 0.08 0.03 0.01 0.02 0.04
0.00 0.01 0.01 0.01 0.00 0.00 0.00 0.00 0.00 0.00 0.00 0.00 0.00 0.00 0.00 0.00 0.00 0.01 0.01 0.01 0.01 0.02 0.01 0.01 0.02 0.01 0.01 0.01 0.02 0.02 0.03 0.06 0.09 0.10 0.08 0.04 0.04 0.05 0.05 0.03 0.02 0.03 0.04
0.00 0.00 0.01 0.01 0.00 0.00 0.00 0.00 0.00 0.00 0.01 0.00 0.00 0.00 0.00 0.00 0.00 0.01 0.01 0.01 0.01 0.02 0.02 0.02 0.02 0.01 0.01 0.01 0.02 0.04 0.04 0.05 0.06 0.04 0.02 0.02 0.02 0.03 0.04 0.05 0.03 0.03 0.03
0.01 0.00 0.00 0.01 0.00 0.00 0.00 0.00 0.00 0.00 0.01 0.00 0.00 0.00 0.00 0.01 0.01 0.01 0.01 0.01 0.01 0.01 0.01 0.01 0.01 0.01 0.01 0.01 0.02 0.05 0.05 0.05 0.04 0.01 0.01 0.01 0.01 0.03 0.03 0.03 0.02 0.02 0.02
0.01 0.01 0.01 0.01 0.01 0.00 0.01 0.01 0.00 0.00 0.01 0.00 0.00 0.00 0.01 0.01 0.01 0.01 0.01 0.01 0.01 0.01 0.01 0.01 0.01 0.01 0.01 0.02 0.03 0.05 0.06 0.08 0.03 0.00 0.00 0.01 0.01 0.02 0.02 0.02 0.02 0.01 0.02
0.01 0.00 0.01 0.01 0.01 0.01 0.00 0.00 0.00 0.00 0.00 0.01 0.01 0.01 0.01 0.01 0.01 0.00 0.00 0.01 0.01 0.00 0.01 0.01 0.01 0.01 0.01 0.02 0.03 0.05 0.06 0.07 0.01 0.00 0.00 0.00 0.01 0.02 0.02 0.01 0.01 0.01 0.01
0.01 0.02 0.02 0.02 0.01 0.01 0.00 0.01 0.01 0.01 0.01 0.01 0.01 0.01 0.01 0.01 0.01 0.00 0.00 0.00 0.00 0.00 0.00 0.01 0.01 0.01 0.01 0.02 0.03 0.04 0.05 0.03 0.01 0.00 0.00 0.00 0.02 0.02 0.02 0.01 0.01 0.01 0.01
0.06 0.06 0.04 0.03 0.02 0.01 0.01 0.01 0.01 0.01 0.01 0.01 0.01 0.01 0.01 0.01 0.01 0.01 0.01 0.00 0.00 0.00 0.00 0.00 0.01 0.01 0.01 0.02 0.03 0.04 0.05 0.04 0.02 0.01 0.00 0.01 0.02 0.02 0.02 0.02 0.01 0.01 0.01
0.10 0.12 0.07 0.03 0.03 0.02 0.02 0.02 0.02 0.02 0.01 0.01 0.01 0.01 0.01 0.01 0.01 0.01 0.01 0.01 0.01 0.01 0.01 0.00 0.00 0.01 0.01 0.01 0.02 0.03 0.04 0.03 0.02 0.01 0.00 0.01 0.03 0.03 0.01 0.01 0.01 0.01 0.01
0.11 0.13 0.09 0.07 0.04 0.02 0.02 0.01 0.01 0.01 0.02 0.02 0.01 0.01 0.01 0.01 0.01 0.01 0.01 0.01 0.01 0.01 0.01 0.01 0.01 0.01 0.01 0.01 0.02 0.03 0.02 0.01 0.01 0.01 0.00 0.01 0.03 0.03 0.02 0.01 0.01 0.01 0.01
0.11 0.12 0.08 0.07 0.05 0.04 0.02 0.01 0.01 0.01 0.01 0.01 0.01 0.01 0.00 0.00 0.01 0.01 0.01 0.02 0.01 0.01 0.01 0.01 0.01 0.01 0.01 0.00 0.01 0.02 0.02 0.01 0.01 0.01 0.01 0.02 0.03 0.03 0.03 0.03 0.03 0.02 0.01
0.22 0.17 0.11 0.10 0.06 0.04 0.02 0.02 0.01 0.01 0.01 0.01 0.01 0.01 0.00 0.01 0.01 0.01 0.01 0.01 0.01 0.01 0.00 0.01 0.01 0.01 0.01 0.01 0.02 0.02 0.02 0.03 0.01 0.01 0.01 0.03 0.04 0.04 0.04 0.03 0.03 0.03 0.03
0.29 0.22 0.17 0.14 0.09 0.06 0.05 0.03 0.02 0.01 0.01 0.01 0.01 0.02 0.01 0.01 0.02 0.01 0.01 0.02 0.01 0.01 0.01 0.01 0.01 0.01 0.01 0.01 0.02 0.02 0.02 0.02 0.02 0.02 0.01 0.03 0.04 0.05 0.06 0.05 0.04 0.04 0.04
0.17 0.13 0.17 0.15 0.10 0.09 0.06 0.04 0.03 0.02 0.02 0.01 0.01 0.02 0.02 0.01 0.02 0.02 0.03 0.04 0.03 0.02 0.02 0.01 0.01 0.01 0.01 0.01 0.01 0.01 0.01 0.02 0.02 0.02 0.01 0.03 0.05 0.05 0.06 0.06 0.07 0.06 0.05
0.19 0.15 0.16 0.17 0.13 0.10 0.08 0.06 0.04 0.03 0.03 0.02 0.01 0.01 0.02 0.02 0.02 0.04 0.03 0.03 0.03 0.03 0.02 0.01 0.00 0.01 0.01 0.01 0.02 0.01 0.01 0.01 0.02 0.01 0.01 0.02 0.04 0.05 0.07 0.09 0.09 0.10 0.10
0.26 0.24 0.28 0.28 0.23 0.17 0.10 0.08 0.06 0.04 0.03 0.02 0.02 0.02 0.02 0.02 0.02 0.03 0.03 0.02 0.02 0.02 0.02 0.01 0.01 0.01 0.01 0.01 0.01 0.02 0.01 0.01 0.01 0.01 0.01 0.01 0.02 0.04 0.07 0.09 0.11 0.12 0.13
0.24 0.25 0.29 0.36 0.30 0.19 0.14 0.10 0.07 0.06 0.04 0.04 0.03 0.03 0.03 0.03 0.03 0.03 0.03 0.03 0.03 0.02 0.02 0.01 0.01 0.00 0.00 0.01 0.01 0.01 0.02 0.01 0.01 0.01 0.01 0.01 0.01 0.03 0.06 0.08 0.10 0.10 0.12
0.23 0.24 0.25 0.22 0.21 0.18 0.15 0.13 0.10 0.08 0.07 0.06 0.05 0.05 0.04 0.03 0.04 0.03 0.03 0.04 0.03 0.02 0.01 0.01 0.01 0.00 0.00 0.00 0.00 0.01 0.02 0.01 0.02 0.01 0.01 0.01 0.01 0.01 0.02 0.04 0.06 0.07 0.08
0.28 0.31 0.29 0.23 0.18 0.16 0.16 0.15 0.13 0.12 0.09 0.07 0.06 0.04 0.04 0.04 0.03 0.03 0.03 0.04 0.03 0.01 0.01 0.01 0.01 0.01 0.00 0.00 0.00 0.01 0.01 0.01 0.01 0.01 0.01 0.01 0.00 0.01 0.01 0.01 0.02 0.04 0.06
0.39 0.39 0.33 0.27 0.21 0.17 0.13 0.11 0.09 0.10 0.08 0.06 0.05 0.04 0.04 0.04 0.04 0.03 0.03 0.02 0.02 0.02 0.02 0.01 0.01 0.01 0.00 0.00 0.00 0.00 0.01 0.00 0.01 0.01 0.01 0.01 0.01 0.01 0.01 0.01 0.01 0.01 0.02
0.38 0.42 0.38 0.34 0.28 0.20 0.14 0.12 0.11 0.12 0.10 0.07 0.05 0.04 0.03 0.04 0.03 0.02 0.02 0.02 0.02 0.02 0.02 0.01 0.01 0.00 0.00 0.00 0.00 0.00 0.00 0.00 0.00 0.00 0.00 0.01 0.01 0.00 0.01 0.01 0.01 0.00 0.01
0.35 0.44 0.38 0.35 0.34 0.26 0.19 0.16 0.14 0.12 0.10 0.06 0.03 0.02 0.02 0.02 0.02 0.02 0.02 0.02 0.01 0.01 0.01 0.01 0.01 0.00 0.00 0.00 0.00 0.00 0.00 0.00 0.00 0.00 0.00 0.00 0.00 0.00 0.00 0.01 0.01 0.01 0.01
0.30 0.33 0.30 0.27 0.31 0.29 0.22 0.13 0.08 0.06 0.05 0.04 0.03 0.03 0.03 0.02 0.01 0.01 0.01 0.01 0.01 0.01 0.01 0.00 0.01 0.01 0.00 0.01 0.01 0.00 0.00 0.00 0.00 0.00 0.00 0.00 0.00 0.00 0.00 0.00 0.01 0.01 0.00
0.24 0.24 0.21 0.16 0.25 0.25 0.20 0.13 0.09 0.05 0.05 0.04 0.03 0.02 0.02 0.02 0.01 0.01 0.01 0.00 0.00 0.00 0.00 0.00 0.01 0.01 0.00 0.01 0.01 0.01 0.01 0.00 0.00 0.00 0.00 0.00 0.00 0.00 0.00 0.00 0.00 0.00 0.00
0.14 0.14 0.12 0.10 0.16 0.19 0.15 0.12 0.10 0.06 0.05 0.04 0.02 0.01 0.01 0.01 0.01 0.01 0.01 0.01 0.01 0.01 0.01 0.01 0.00 0.01 0.01 0.01 0.01 0.01 0.01 0.01 0.00 0.00 0.00 0.00 0.00 0.00 0.00 0.00 0.00 0.00 0.00
MSLP
1010.87 1010.68 1010.69 1010.88 1011.19 1011.56 1011.90 1012.17 1012.33 1012.41 1012.42 1012.43 1012.47 1012.59 1012.79 1013.05 1013.36 1013.66 1013.93 1014.15 1014.31 1014.40 1014.47 1014.52 1014.57 1014.66 1014.77 1014.90 1015.06 1015.22 1015.38 1015.53 1015.67 1015.81 1015.95 1016.10 1016.27 1016.45 1016.65 1016.86 1017.08 1017.29 1017.48
1010.35 1010.31 1010.47 1010.79 1011.22 1011.67 1012.08 1012.39 1012.58 1012.69 1012.73 1012.77 1012.85 1013.00 1013.22 1013.50 1013.80 1014.09 1014.34 1014.53 1014.65 1014.73 1014.77 1014.81 1014.86 1014.94 1015.05 1015.18 1015.32 1015.48 1015.63 1015.78 1015.93 1016.08 1016.23 1016.39 1016.56 1016.74 1016.93 1017.13 1017.34 1017.54 1017.75
1009.84 1009.95 1010.24 1010.68 1011.20 1011.73 1012.20 1012.56 1012.80 1012.95 1013.05 1013.14 1013.26 1013.44 1013.68 1013.96 1014.24 1014.50 1014.70 1014.85 1014.94 1014.99 1015.02 1015.06 1015.12 1015.20 1015.30 1015.43 1015.57 1015.72 1015.88 1016.04 1016.20 1016.36 1016.53 1016.69 1016.87 1017.04 1017.22 1017.40 1017.60 1017.80 1018.01
1009.45 1009.68 1010.08 1010.61 1011.20 1011.78 1012.28 1012.69 1012.98 1013.18 1013.33 1013.47 1013.64 1013.85 1014.10 1014.37 1014.62 1014.83 1015.00 1015.11 1015.17 1015.21 1015.24 1015.29 1015.36 1015.45 1015.57 1015.70 1015.84 1016.00 1016.16 1016.33 1016.51 1016.70 1016.88 1017.06 1017.22 1017.38 1017.54 1017.70 1017.88 1018.07 1018.28
1009.22 1009.55 1010.03 1010.61 1011.24 1011.84 1012.37 1012.79 1013.11 1013.34 1013.54 1013.73 1013.94 1014.18 1014.44 1014.69 1014.92 1015.10 1015.23 1015.31 1015.37 1015.41 1015.46 1015.53 1015.63 1015.74 1015.87 1016.01 1016.17 1016.33 1016.51 1016.69 1016.90 1017.10 1017.30 1017.48 1017.64 1017.78 1017.90 1018.04 1018.19 1018.37 1018.58
1009.20 1009.60 1010.12 1010.72 1011.34 1011.94 1012.45 1012.86 1013.18 1013.44 1013.67 1013.89 1014.14 1014.40 1014.67 1014.93 1015.14 1015.31 1015.42 1015.50 1015.56 1015.63 1015.71 1015.82 1015.94 1016.08 1016.23 1016.39 1016.55 1016.72 1016.90 1017.11 1017.33 1017.55 1017.76 1017.94 1018.09 1018.21 1018.30 1018.40 1018.52 1018.68 1018.89
1009.35 1009.79 1010.33 1010.92 1011.52 1012.07 1012.53 1012.91 1013.22 1013.47 1013.71 1013.97 1014.25 1014.54 1014.84 1015.10 1015.33 1015.50 1015.62 1015.71 1015.80 1015.90 1016.01 1016.16 1016.31 1016.48 1016.64 1016.80 1016.96 1017.13 1017.33 1017.54 1017.78 1018.01 1018.23 1018.41 1018.55 1018.64 1018.70 1018.76 1018.85 1018.99 1019.18
1009.62 1010.08 1010.61 1011.18 1011.73 1012.22 1012.63 1012.96 1013.22 1013.47 1013.72 1014.00 1014.31 1014.64 1014.96 1015.26 1015.51 1015.70 1015.85 1015.97 1016.09 1016.22 1016.37 1016.53 1016.71 1016.89 1017.05 1017.21 1017.36 1017.53 1017.72 1017.94 1018.18 1018.42 1018.65 1018.84 1018.96 1019.04 1019.08 1019.11 1019.16 1019.27 1019.45
1009.92 1010.39 1010.91 1011.45 1011.95 1012.38 1012.73 1013.01 1013.24 1013.47 1013.72 1014.02 1014.37 1014.74 1015.10 1015.44 1015.72 1015.95 1016.12 1016.27 1016.41 1016.57 1016.74 1016.92 1017.10 1017.27 1017.42 1017.56 1017.70 1017.85 1018.04 1018.25 1018.49 1018.75 1018.98 1019.17 1019.30 1019.37 1019.40 1019.41 1019.44 1019.53 1019.69
1010.17 1010.65 1011.17 1011.68 1012.15 1012.54 1012.84 1013.08 1013.29 1013.50 1013.77 1014.09 1014.47 1014.88 1015.29 1015.66 1015.98 1016.24 1016.44 1016.60 1016.76 1016.92 1017.09 1017.26 1017.43 1017.58 1017.72 1017.84 1017.96 1018.09 1018.26 1018.46 1018.71 1018.96 1019.20 1019.40 1019.55 1019.63 1019.66 1019.67 1019.70 1019.77 1019.91
1010.31 1010.81 1011.34 1011.85 1012.30 1012.67 1012.95 1013.18 1013.38 1013.61 1013.89 1014.24 1014.64 1015.08 1015.52 1015.92 1016.27 1016.54 1016.76 1016.93 1017.08 1017.23 1017.38 1017.54 1017.69 1017.82 1017.93 1018.03 1018.13 1018.25 1018.40 1018.60 1018.83 1019.09 1019.34 1019.55 1019.71 1019.82 1019.87 1019.90 1019.94 1020.01 1020.14
1010.33 1010.85 1011.40 1011.92 1012.39 1012.77 1013.07 1013.31 1013.54 1013.78 1014.08 1014.45 1014.88 1015.34 1015.79 1016.21 1016.56 1016.84 1017.05 1017.22 1017.36 1017.49 1017.62 1017.75 1017.88 1017.99 1018.09 1018.18 1018.27 1018.37 1018.51 1018.70 1018.92 1019.16 1019.41 1019.64 1019.83 1019.96 1020.05 1020.11 1020.17 1020.25 1020.37
1010.22 1010.76 1011.33 1011.89 1012.39 1012.81 1013.16 1013.45 1013.72 1014.00 1014.33 1014.72 1015.15 1015.61 1016.06 1016.46 1016.81 1017.08 1017.29 1017.44 1017.57 1017.68 1017.80 1017.92 1018.03 1018.14 1018.24 1018.33 1018.42 1018.52 1018.65 1018.81 1019.02 1019.25 1019.49 1019.71 1019.91 1020.08 1020.20 1020.30 1020.39 1020.49 1020.61
1010.01 1010.56 1011.15 1011.74 1012.29 1012.78 1013.20 1013.56 1013.90 1014.23 1014.59 1014.98 1015.41 1015.85 1016.27 1016.66 1016.99 1017.25 1017.45 1017.60 1017.72 1017.84 1017.95 1018.07 1018.20 1018.32 1018.43 1018.53 1018.63 1018.74 1018.86 1019.01 1019.18 1019.37 1019.58 1019.79 1019.99 1020.17 1020.33 1020.46 1020.59 1020.72 1020.85
1009.72 1010.25 1010.84 1011.46 1012.07 1012.64 1013.15 1013.61 1014.03 1014.42 1014.81 1015.20 1015.61 1016.02 1016.41 1016.76 1017.07 1017.33 1017.53 1017.70 1017.84 1017.98 1018.11 1018.26 1018.41 1018.56 1018.70 1018.83 1018.95 1019.06 1019.17 1019.29 1019.42 1019.57 1019.73 1019.90 1020.07 1020.25 1020.42 1020.58 1020.74 1020.89 1021.03
1009.35 1009.83 1010.40 1011.04 1011.71 1012.37 1012.99 1013.57 1014.08 1014.54 1014.96 1015.35 1015.73 1016.09 1016.44 1016.77 1017.06 1017.33 1017.56 1017.76 1017.95 1018.13 1018.31 1018.50 1018.69 1018.88 1019.06 1019.22 1019.36 1019.48 1019.58 1019.66 1019.74 1019.82 1019.91 1020.02 1020.14 1020.29 1020.45 1020.62 1020.80 1020.97 1021.12
1008.93 1009.33 1009.86 1010.50 1011.22 1011.98 1012.72 1013.41 1014.03 1014.56 1015.02 1015.41 1015.76 1016.08 1016.38 1016.68 1016.98 1017.26 1017.54 1017.80 1018.06 1018.30 1018.55 1018.79 1019.03 1019.26 1019.47 1019.67 1019.83 1019.95 1020.03 1020.08 1020.10 1020.10 1020.11 1020.14 1020.20 1020.30 1020.43 1020.59 1020.77 1020.95 1021.11
1008.46 1008.75 1009.22 1009.87 1010.64 1011.49 1012.35 1013.17 1013.90 1014.51 1015.01 1015.40 1015.72 1016.00 1016.27 1016.55 1016.85 1017.17 1017.50 1017.84 1018.18 1018.50 1018.81 1019.10 1019.38 1019.64 1019.89 1020.10 1020.27 1020.40 1020.46 1020.48 1020.45 1020.39 1020.32 1020.27 1020.26 1020.29 1020.38 1020.51 1020.67 1020.84 1021.00
1007.98 1008.16 1008.57 1009.20 1010.02 1010.97 1011.95 1012.89 1013.73 1014.43 1014.96 1015.35 1015.65 1015.89 1016.13 1016.40 1016.71 1017.07 1017.47 1017.89 1018.30 1018.69 1019.06 1019.40 1019.70 1019.98 1020.24 1020.46 1020.64 1020.77 1020.83 1020.83 1020.76 1020.66 1020.53 1020.41 1020.32 1020.29 1020.32 1020.40 1020.54 1020.69 1020.85
1007.54 1007.62 1007.97 1008.59 1009.46 1010.48 1011.58 1012.64 1013.58 1014.35 1014.93 1015.32 1015.59 1015.81 1016.01 1016.27 1016.59 1016.99 1017.45 1017.93 1018.41 1018.86 1019.27 1019.63 1019.94 1020.22 1020.47 1020.69 1020.88 1021.01 1021.08 1021.09 1021.02 1020.89 1020.73 1020.56 1020.42 1020.33 1020.30 1020.34 1020.44 1020.57 1020.71
1007.21 1007.22 1007.51 1008.13 1009.03 1010.13 1011.32 1012.48 1013.50 1014.33 1014.94 1015.33 1015.58 1015.76 1015.94 1016.18 1016.51 1016.94 1017.44 1017.97 1018.50 1018.98 1019.40 1019.76 1020.06 1020.33 1020.56 1020.78 1020.97 1021.12 1021.22 1021.25 1021.21 1021.10 1020.93 1020.75 1020.58 1020.45 1020.37 1020.37 1020.42 1020.52 1020.64
1007.06 1007.03 1007.29 1007.91 1008.83 1009.97 1011.21 1012.44 1013.52 1014.39 1015.00 1015.39 1015.62 1015.77 1015.92 1016.14 1016.47 1016.91 1017.43 1017.98 1018.53 1019.02 1019.44 1019.79 1020.06 1020.30 1020.51 1020.72 1020.92 1021.10 1021.24 1021.33 1021.34 1021.27 1021.15 1020.98 1020.80 1020.65 1020.55 1020.50 1020.52 1020.58 1020.67
1007.16 1007.11 1007.36 1007.96 1008.88 1010.03 1011.29 1012.53 1013.63 1014.50 1015.12 1015.49 1015.70 1015.82 1015.94 1016.14 1016.45 1016.88 1017.41 1017.97 1018.51 1019.00 1019.40 1019.71 1019.95 1020.16 1020.35 1020.55 1020.76 1020.98 1021.18 1021.34 1021.42 1021.43 1021.36 1021.23 1021.08 1020.93 1020.81 1020.73 1020.72 1020.74 1020.81
1007.50 1007.47 1007.72 1008.30 1009.18 1010.29 1011.51 1012.72 1013.79 1014.64 1015.23 1015.59 1015.76 1015.86 1015.96 1016.14 1016.44 1016.85 1017.36 1017.91 1018.44 1018.90 1019.28 1019.56 1019.77 1019.95 1020.12 1020.32 1020.56 1020.81 1021.07 1021.29 1021.45 1021.54 1021.54 1021.47 1021.35 1021.22 1021.10 1021.01 1020.96 1020.96 1020.99
1008.07 1008.08 1008.32 1008.85 1009.66 1010.68 1011.82 1012.94 1013.95 1014.74 1015.30 1015.62 1015.78 1015.87 1015.95 1016.12 1016.40 1016.80 1017.30 1017.82 1018.33 1018.77 1019.12 1019.38 1019.57 1019.73 1019.89 1020.09 1020.34 1020.62 1020.93 1021.21 1021.44 1021.59 1021.66 1021.65 1021.58 1021.47 1021.36 1021.27 1021.20 1021.17 1021.16
1008.78 1008.83 1009.05 1009.52 1010.22 1011.12 1012.13 1013.13 1014.03 1014.75 1015.26 1015.56 1015.72 1015.80 1015.89 1016.06 1016.33 1016.72 1017.20 1017.71 1018.19 1018.61 1018.95 1019.19 1019.37 1019.53 1019.69 1019.89 1020.15 1020.45 1020.78 1021.10 1021.37 1021.57 1021.69 1021.73 1021.70 1021.63 1021.54 1021.44 1021.36 1021.31 1021.27
Thickness
5780 5781 5779 5777 5776 5774 5773 5772 5771 5769 5769 5768 5767 5766 5765 5764 5763 5762 5760 5759 5759 5758 5756 5756 5755 5754 5753 5752 5752 5751 5749 5748 5747 5745 5744 5743 5742 5741 5740 5738 5738 5736 5735
5788 5783 5779 5776 5774 5773 5772 5770 5769 5768 5767 5766 5765 5764 5763 5762 5761 5760 5759 5758 5757 5756 5755 5754 5753 5752 5751 5750 5749 5749 5747 5746 5744 5743 5742 5741 5740 5738 5738 5737 5736 5735 5734
5787 5783 5779 5776 5773 5772 5770 5769 5767 5766 5765 5764 5763 5762 5761 5760 5759 5759 5757 5756 5755 5755 5753 5752 5751 5750 5749 5748 5747 5746 5745 5744 5743 5741 5740 5739 5737 5737 5736 5735 5734 5733 5732
5786 5782 5778 5775 5772 5770 5768 5767 5765 5764 5763 5762 5761 5760 5759 5758 5757 5757 5756 5755 5754 5753 5752 5750 5749 5748 5747 5746 5745 5744 5743 5742 5740 5739 5738 5737 5736 5735 5734 5733 5732 5731 5730
5783 5780 5777 5774 5771 5768 5766 5764 5763 5762 5761 5760 5759 5758 5757 5756 5755 5754 5754 5753 5752 5751 5750 5749 5747 5746 5745 5744 5743 5742 5741 5740 5739 5737 5736 5735 5734 5734 5733 5732 5731 5729 5728
5781 5778 5775 5772 5769 5766 5764 5762 5761 5759 5758 5757 5756 5756 5755 5754 5753 5752 5751 5750 5749 5749 5748 5747 5745 5744 5743 5742 5742 5741 5740 5739 5737 5735 5734 5733 5732 5732 5731 5730 5729 5728 5727
5779 5776 5773 5770 5767 5764 5762 5761 5759 5757 5756 5755 5754 5753 5753 5752 5751 5750 5749 5748 5747 5746 5745 5744 5743 5742 5741 5740 5740 5739 5738 5737 5735 5733 5732 5731 5731 5730 5730 5729 5728 5727 5725
5777 5773 5770 5767 5764 5762 5760 5759 5757 5756 5754 5753 5752 5751 5750 5749 5748 5747 5746 5746 5745 5744 5743 5742 5741 5740 5739 5738 5738 5737 5737 5735 5733 5732 5731 5730 5729 5729 5728 5727 5726 5725 5724
5773 5770 5767 5764 5762 5760 5758 5757 5756 5754 5753 5751 5750 5749 5748 5747 5745 5744 5744 5743 5742 5741 5740 5739 5738 5738 5737 5737 5737 5736 5735 5734 5732 5730 5729 5728 5728 5727 5726 5726 5725 5724 5723
5768 5766 5764 5762 5760 5758 5756 5755 5754 5752 5751 5749 5748 5746 5745 5744 5743 5742 5741 5740 5739 5738 5737 5737 5736 5736 5735 5735 5735 5734 5733 5732 5730 5729 5728 5727 5726 5725 5725 5724 5723 5722 5721
5762 5761 5761 5759 5757 5756 5754 5753 5751 5750 5749 5747 5746 5744 5743 5741 5740 5739 5738 5737 5737 5736 5735 5734 5734 5733 5733 5733 5733 5732 5731 5730 5728 5727 5726 5725 5725 5724 5723 5722 5721 5720 5719
5757 5757 5757 5756 5755 5753 5752 5750 5749 5748 5746 5745 5744 5742 5740 5738 5737 5736 5735 5735 5734 5733 5733 5732 5731 5731 5730 5730 5730 5730 5729 5728 5727 5726 5725 5724 5723 5723 5722 5721 5719 5718 5717
5757 5755 5753 5752 5751 5751 5750 5748 5746 5745 5743 5742 5741 5739 5737 5736 5734 5733 5733 5732 5731 5731 5730 5729 5729 5728 5728 5727 5727 5727 5727 5726 5726 5725 5724 5723 5722 5721 5720 5719 5718 5716 5715
5753 5752 5750 5749 5748 5747 5746 5745 5743 5742 5740 5739 5738 5737 5735 5733 5732 5731 5729 5729 5728 5728 5727 5727 5726 5726 5726 5726 5725 5725 5725 5724 5724 5723 5723 5722 5721 5720 5719 5717 5716 5715 5714
5750 5750 5748 5746 5745 5744 5743 5742 5741 5740 5738 5737 5735 5734 5733 5731 5730 5728 5727 5726 5725 5725 5725 5725 5724 5724 5724 5724 5723 5723 5723 5722 5722 5722 5721 5720 5719 5718 5717 5716 5714 5713 5712
5749 5747 5746 5743 5742 5740 5739 5739 5738 5737 5736 5735 5733 5732 5731 5729 5728 5727 5725 5724 5723 5723 5723 5722 5722 5721 5721 5721 5721 5721 5721 5720 5720 5720 5719 5719 5718 5717 5716 5715 5713 5712 5711
5747 5744 5743 5741 5739 5737 5736 5736 5735 5734 5733 5732 5731 5730 5729 5728 5727 5725 5723 5722 5721 5721 5721 5720 5720 5719 5719 5719 5719 5719 5719 5718 5718 5718 5718 5717 5717 5716 5715 5713 5712 5711 5710
5744 5741 5739 5738 5736 5735 5734 5734 5733 5732 5731 5730 5729 5728 5728 5727 5725 5724 5722 5720 5720 5719 5719 5719 5718 5717 5716 5716 5716 5717 5717 5717 5717 5717 5716 5716 5715 5714 5713 5712 5711 5710 5709
5741 5738 5735 5735 5734 5733 5732 5731 5730 5729 5729 5728 5727 5727 5726 5725 5724 5723 5721 5719 5719 5718 5717 5718 5716 5715 5714 5714 5714 5714 5714 5715 5715 5715 5715 5714 5714 5713 5712 5711 5710 5709 5708
5737 5734 5732 5731 5731 5730 5728 5727 5726 5725 5725 5726 5725 5725 5724 5724 5723 5721 5719 5718 5717 5717 5716 5715 5714 5713 5712 5712 5713 5712 5712 5713 5713 5714 5714 5713 5713 5712 5711 5710 5710 5709 5708
5732 5730 5728 5727 5726 5725 5724 5723 5721 5721 5722 5722 5723 5723 5723 5723 5721 5720 5718 5717 5716 5715 5714 5714 5712 5711 5710 5710 5709 5708 5709 5710 5711 5711 5712 5712 5711 5711 5710 5709 5708 5707 5706
5730 5728 5726 5724 5724 5724 5724 5723 5722 5720 5720 5720 5721 5721 5721 5721 5720 5719 5718 5716 5715 5714 5712 5712 5711 5709 5708 5708 5707 5704 5701 5703 5707 5709 5709 5709 5709 5709 5708 5708 5707 5706 5705
5730 5727 5725 5723 5722 5722 5721 5720 5718 5716 5716 5716 5716 5718 5719 5719 5719 5718 5716 5715 5714 5713 5711 5711 5711 5710 5707 5706 5707 5705 5700 5697 5700 5704 5705 5706 5706 5706 5706 5705 5705 5704 5703
5732 5729 5725 5723 5721 5720 5719 5718 5717 5715 5713 5715 5716 5716 5716 5716 5717 5716 5715 5714 5713 5712 5711 5711 5711 5710 5708 5706 5705 5705 5704 5703 5700 5698 5701 5702 5703 5703 5703 5703 5702 5702 5701
5732 5728 5725 5722 5720 5719 5719 5718 5717 5715 5715 5714 5714 5713 5713 5713 5714 5715 5714 5713 5712 5711 5711 5710 5710 5710 5709 5707 5706 5704 5702 5701 5701 5699 5696 5697 5699 5700 5700 5700 5700 5699 5699
5731 5727 5724 5721 5718 5719 5718 5717 5717 5715 5714 5713 5711 5710 5710 5711 5711 5713 5712 5711 5711 5710 5710 5709 5709 5709 5708 5708 5706 5705 5704 5702 5699 5698 5695 5694 5694 5696 5697 5698 5698 5697 5696